Tracking 19909 objects as of 21-Oct-2019
HD Live streaming from Space Station
objects crossing your sky now

COSMOS 1275 DEB

Track COSMOS 1275 DEB now!
10-day predictions


NORAD ID: 42191
Int'l Code: 1981-053TF
Perigee: 873.8 km
Apogee: 927.5 km
Inclination: 82.8 °
Period: 102.9 minutes
Semi major axis: 7271 km
RCS: Unknown
Launch date: June 4, 1981
Source: Commonwealth of Independent States (former USSR) (CIS)
Launch site: PLESETSK MISSILE AND SPACE COMPLEX (PKMTR)

Note: This is SATELLITE DEBRIS
aabbcc
Your satellite tracking list
Your tracking list is empty




NASA's NSSDC Master Catalog

Two Line Element Set (TLE):
1 42191U 81053TF  19290.62092924 +.00000480 +00000-0 +31356-3 0  9992
2 42191 082.8252 250.0611 0036919 230.2902 129.5012 14.00070324301642
Source of the keplerian elements: AFSPC